Location: Haliburton Scout Reserve
(45.0900°N, 78.3200°W)
Time: 15:03:16
(UTC-05:00)

IDEFIX/ARIANE 42P - Visible Passes

Search period start: 18 January 2017 00:00
Search period end: 28 January 2017 00:00
Orbit: 786 x 802 km, 98.2° (Epoch: 18 January)

Date Brightness Start Highest point End Pass type
(mag) Time Alt. Az. Time Alt. Az. Time Alt. Az.
18 Jan 4.9 05:30:50 10° NE 05:35:04 24° E 05:39:17 10° SE visible
18 Jan 2.8 07:09:51 10° N 07:14:55 48° WNW 07:19:57 10° SW visible
18 Jan 4.8 18:31:18 10° SSW 18:35:41 27° W 18:40:09 10° NW visible
19 Jan 5.7 05:03:52 10° ENE 05:06:25 13° E 05:08:58 10° ESE visible
19 Jan 2.6 06:41:22 10° NNE 06:46:41 83° WNW 06:51:57 10° SSW visible
19 Jan 3.7 18:02:10 10° S 18:07:11 48° W 18:12:16 10° NNW visible
20 Jan 3.3 06:13:07 10° NNE 06:18:19 57° E 06:23:30 10° S visible
20 Jan 2.7 17:33:35 10° SSE 17:38:48 85° WSW 17:44:05 10° NNW visible
20 Jan 5.9 19:17:43 10° WSW 19:19:12 11° W 19:20:41 10° WNW visible
21 Jan 4.4 05:45:08 10° NNE 05:49:52 32° E 05:54:33 10° SSE visible
21 Jan 5.3 18:46:40 10° SW 18:50:30 20° W 18:54:22 10° NW visible
22 Jan 5.3 05:17:38 10° NE 05:21:16 19° E 05:24:53 10° SE visible
22 Jan 2.6 06:56:05 10° N 07:01:18 62° WNW 07:06:29 10° SSW visible
22 Jan 4.3 18:17:10 10° SSW 18:21:55 36° W 18:26:44 10° NNW visible
23 Jan 2.8 06:27:42 10° NNE 06:33:01 77° ESE 06:38:17 10° S visible
23 Jan 3.2 17:48:19 10° S 17:53:28 63° WSW 17:58:42 10° NNW visible
24 Jan 3.9 05:59:34 10° NNE 06:04:36 43° E 06:09:37 10° S visible
24 Jan 5.7 19:02:24 10° WSW 19:05:20 15° W 19:08:17 10° NW visible
25 Jan 4.9 05:31:46 10° NE 05:36:05 25° E 05:40:22 10° SSE visible
25 Jan 4.9 18:32:20 10° SSW 18:36:42 26° W 18:41:06 10° NW visible
26 Jan 5.7 05:04:41 10° NE 05:07:26 14° E 05:10:10 10° ESE visible
26 Jan 2.6 06:42:22 10° N 06:47:40 80° WNW 06:52:55 10° SSW visible
26 Jan 3.8 18:03:10 10° S 18:08:10 46° W 18:13:15 10° NNW visible
27 Jan 3.2 06:14:06 10° NNE 06:19:20 59° E 06:24:31 10° S visible
27 Jan 6.0 19:19:07 10° W 19:20:13 11° W 19:21:19 10° WNW visible
